Home > Time Zones > World Clock > Weather > U.S.A. > Napa > Past weeks

Flag for U.S.A. Weather past 2 weeks in Napa, California, U.S.A.

Now
55 °F

Clear.


Feels Like: 52 °F
Forecast: 47 / 68 °F
Wind: 10 mph from Southwest

Location: Napa County Airport

Current Time: Oct 20, 2014 at 9:33:40 PM

Latest Report: Oct 20, 2014 at 8:54 PM


Visibility: 10 mi

Pressure: 29.97 "Hg

Humidity: 90%

Dew point: 52 °F

Location of NapaLocation

Historic Weather in Napa — Graph

°F

Napa temperature yesterday

Maximum temperature yesterday: 74 °F (at 1:54 PM)
Minimum temperature yesterday: 50 °F (at 1:54 AM)
Average temperature yesterday: 61 °F

Past Weeks' High & Low Weather Summary

 TemperatureHumidityPressure
High95 °F (Oct 12, 2:54 PM)100% (Oct 6, 6:54 AM)30.07 "Hg (Oct 6, 6:54 AM)
Low45 °F (Oct 13, 5:54 AM)4% (Oct 12, 3:54 PM)29.78 "Hg (Oct 8, 4:54 PM)
Average62 °F76%29.91 "Hg
* Reported Oct 5 7:54 PM — Oct 20 7:54 PM, Napa, Weather by CustomWeather, © 2014

Note: Actual official high and low records may vary slightly from our data, if they occured in-between our weather recording intervals... More about our weather records

Advertising

Napa weather history for previous 24 hours

 ConditionsComfort  
Time TempWeatherWind HumidityBarometerVisibility
7:54 PM
Oct 20
59 °FClear.7 mph81%29.97 "Hg10 mi
6:54 PM61 °FSunny.10 mph75%29.94 "Hg10 mi
5:54 PM65 °FScattered clouds.15 mph63%29.93 "Hg10 mi
4:54 PM69 °FSunny.20 mph55%29.91 "Hg10 mi
3:54 PM71 °FMostly cloudy.18 mph45%29.91 "Hg10 mi
2:54 PM69 °FMostly cloudy.14 mph53%29.91 "Hg10 mi
1:54 PM69 °FOvercast.14 mph57%29.92 "Hg10 mi
12:54 PM67 °FLight rain. Overcast.13 mph68%29.93 "Hg10 mi
11:54 AM67 °FOvercast.12 mph71%29.93 "Hg10 mi
10:54 AM64 °FOvercast.12 mph81%29.93 "Hg10 mi
9:54 AM61 °FMostly cloudy.10 mph97%29.93 "Hg10 mi
8:54 AM64 °FMostly cloudy.9 mph81%29.90 "Hg10 mi
7:54 AM58 °FClear.No wind97%29.88 "Hg10 mi
6:54 AM58 °FPassing clouds.3 mph97%29.88 "Hg10 mi
5:54 AM61 °FOvercast.No wind87%29.87 "Hg10 mi
4:54 AM61 °FOvercast.3 mph90%29.87 "Hg10 mi
3:54 AM60 °FOvercast.6 mph90%29.88 "Hg10 mi
2:54 AM60 °FPassing clouds.5 mph93%29.88 "Hg10 mi
1:54 AM60 °FPassing clouds.6 mph93%29.88 "Hg10 mi
12:54 AM62 °FOvercast.7 mph86%29.88 "Hg10 mi
11:54 PM
Oct 19
62 °FOvercast.10 mph86%29.87 "Hg10 mi
10:54 PM62 °FOvercast.14 mph86%29.87 "Hg10 mi
9:54 PM61 °FClear.12 mph90%29.86 "Hg10 mi
Weather by CustomWeather, © 2014

See weather overviewHow to use our weather pages